Lapse_Rate
5.7 5.7 5.6 5.6 5.5 5.0 4.4 4.3 4.5 4.7 4.6 5.1 5.6 5.8 5.5 5.6 5.5 5.3 5.3 5.5 5.4 5.2
5.6 5.7 5.8 5.7 5.7 5.7 5.2 4.9 4.9 4.7 4.7 4.7 5.0 5.4 5.7 5.5 5.4 5.7 5.8 5.8 5.8 5.8
5.8 5.7 5.7 5.6 5.6 5.8 6.1 6.1 6.0 5.5 5.1 4.7 4.8 4.9 5.2 5.4 5.5 5.7 6.0 5.7 5.6 5.2
6.0 6.0 6.0 6.0 6.1 6.2 6.3 6.4 6.5 6.7 6.4 5.9 5.3 4.7 4.7 5.0 4.9 5.0 5.1 5.3 5.0 5.0
6.2 6.1 6.1 6.2 6.3 6.3 6.4 6.6 6.6 6.6 6.7 6.8 6.2 6.0 5.7 5.1 4.9 5.0 4.7 4.4 4.6 4.7
6.1 6.2 6.2 6.3 6.4 6.4 6.3 6.2 6.3 6.3 6.4 6.4 6.4 6.3 6.0 5.5 5.3 5.1 5.1 4.9 4.6 4.4
6.2 6.1 6.1 6.1 6.0 6.0 6.0 6.0 5.9 5.9 5.9 5.8 5.7 5.6 5.4 5.3 5.2 5.0 4.7 4.4 4.4 4.6
6.2 6.0 5.9 5.9 5.8 5.8 5.7 5.7 5.6 5.5 5.4 5.2 5.0 4.8 4.7 4.5 4.3 4.3 4.3 4.2 4.1 4.1
6.0 5.9 5.8 5.7 5.7 5.7 5.7 5.6 5.5 5.4 5.2 5.0 4.8 4.6 4.4 4.3 4.2 4.2 4.1 4.1 4.1 4.1
5.8 5.7 5.6 5.7 5.7 5.7 5.7 5.7 5.7 5.7 5.5 5.1 4.8 4.6 4.5 4.4 4.3 4.2 4.1 4.0 3.9 3.8
5.8 5.8 5.8 5.8 5.8 5.7 5.7 5.7 5.7 5.5 5.3 4.9 4.6 4.5 4.4 4.3 4.3 4.2 4.3 4.5 4.4 4.2
5.7 5.7 5.7 5.8 5.8 5.8 5.7 5.7 5.6 5.4 5.1 4.8 4.7 4.6 4.4 4.4 4.3 4.5 4.6 5.2 5.9 6.0
5.7 5.7 5.7 5.8 5.8 5.7 5.6 5.5 5.5 5.2 5.1 4.8 4.7 4.6 4.5 4.4 4.6 4.8 5.8 6.3 6.3 6.4
5.7 5.7 5.7 5.6 5.6 5.6 5.6 5.5 5.4 5.3 5.0 4.8 4.7 4.6 4.6 4.8 4.8 5.9 6.4 6.4 6.5 6.6
Wind_Speed
13 9 10 12 10 10 10 11 19 18 17 19 20 19 15 8 8 10 9 14 10 6
11 12 11 13 11 10 12 13 17 19 15 18 17 17 15 10 11 12 11 10 10 9
10 10 10 10 12 13 14 18 16 15 15 14 15 18 14 12 13 14 11 10 12 10
8 9 9 9 10 12 15 16 13 13 13 13 13 14 13 13 14 14 13 13 13 13
8 9 10 10 11 15 13 16 15 14 12 12 12 13 15 15 15 15 15 14 13 14
8 9 10 11 12 14 13 13 14 13 12 13 12 12 13 13 14 14 13 14 14 13
7 8 7 9 10 11 13 12 12 11 11 11 11 10 14 15 14 14 13 13 13 13
5 6 6 8 9 10 10 10 12 11 10 10 10 8 15 15 14 14 14 14 13 12
6 6 7 8 9 9 10 11 10 11 11 12 9 14 17 15 15 15 14 14 14 14
7 8 8 8 9 10 11 10 11 11 12 12 12 16 17 16 14 14 14 15 14 14
7 8 6 8 10 10 10 11 11 11 12 12 10 13 14 14 15 14 14 14 14 15
5 7 8 7 5 8 10 11 10 11 12 13 13 13 15 16 15 13 14 13 14 14
5 7 8 9 9 9 10 10 10 12 12 12 13 13 15 16 11 14 11 12 12 14
4 6 7 8 8 10 11 11 11 11 11 12 12 14 16 18 12 10 11 11 11 11
Wind_Direction
29 25 27 21 18 12 4 358 357 359 1 359 9 4 1 354 360 345 358 357 354 345
34 30 26 23 21 12 7 359 356 358 358 360 1 358 359 357 360 357 356 355 357 354
33 28 26 23 19 12 4 1 357 357 357 359 359 360 359 357 355 353 355 356 351 342
29 25 23 22 15 7 359 359 358 356 355 356 356 357 356 356 354 354 350 350 344 336
29 21 19 17 8 2 359 358 358 356 355 355 354 358 358 353 352 350 348 345 343 337
26 20 19 11 2 0 357 356 357 357 355 352 349 352 352 348 345 344 341 340 336 335
24 18 15 7 2 359 358 356 354 351 348 347 343 343 346 343 340 336 335 335 331 328
24 18 10 4 0 358 357 352 351 348 343 343 338 349 340 337 333 328 323 327 325 323
19 12 10 3 359 356 352 354 346 343 340 335 332 340 332 332 326 325 319 322 322 320
21 12 4 1 357 354 348 342 340 334 332 328 324 332 320 319 324 320 317 320 320 320
11 5 346 350 354 346 340 337 335 330 331 323 322 314 310 312 317 319 320 321 322 319
349 349 347 343 316 333 334 329 325 324 319 315 315 312 316 320 325 319 322 318 318 315
342 342 346 343 338 333 330 323 320 315 313 309 311 321 320 317 323 320 321 314 308 300
329 332 332 333 330 332 330 326 322 321 322 319 324 325 322 310 317 319 314 312 311 306